Location: Iesi
(43.5167°N, 13.2333°E)
Time: 09:52:17
(UTC+00:00)

X-37B - Visible Passes

Search period start: 27 October 2020 00:00
Search period end: 06 November 2020 00:00
Orbit: 382 x 392 km, 45.0° (Epoch: 15 October)

Date Brightness Start Highest point End Pass type
(mag) Time Alt. Az. Time Alt. Az. Time Alt. Az.
01 Nov 3.4 04:24:35 10° S 04:26:36 16° SE 04:28:36 10° ESE visible
02 Nov 1.7 05:01:16 10° SW 05:04:19 43° SSE 05:07:22 10° E visible
03 Nov 2.5 04:04:29 19° S 04:05:52 26° SSE 04:08:36 10° E visible
04 Nov 3.9 03:09:00 12° ESE 03:09:00 12° ESE 03:09:29 10° ESE visible
04 Nov 0.8 04:41:18 16° WSW 04:43:43 67° SSE 04:46:54 10° ENE visible
05 Nov 1.8 03:45:41 39° SE 03:45:41 39° SE 03:48:15 10° E visible
